Change the Weather History Date:

Sunday, July 7, 2013

  Actual Average Record
Temperature  
Mean Temperature 70 °F 70 °F  
Max Temperature 80 °F 83 °F 106 °F (1936)
Min Temperature 60 °F 57 °F 40 °F (1922)
Degree Days  
Heating Degree Days 0 1  
Month to date heating degree days 0 7  
Since 1 June heating degree days 86 100  
Since 1 July heating degree days 0 7  
Cooling Degree Days 5 6  
Month to date cooling degree days 45 37  
Year to date cooling degree days 141 137  
Since 1 June cooling degree days 129 120  
Growing Degree Days 20 (Base 50)    
Moisture  
Dew Point 58 °F    
Average Humidity 68    
Maximum Humidity 90    
Minimum Humidity 45    
Precipitation  
Precipitation 0.00 in 0.10 in 1.47 in (1969)
Month to date precipitation 0.20 0.69  
Year to date precipitation 13.51 9.33  
Snow  
Snow 0.00 in 0.00 in 0.00 in (2002)
Month to date snowfall 0.0 0.0  
Since 1 June snowfall 0.0 0.0  
Since 1 July snowfall 0.0 0.0  
Snow Depth 0.00 in    
Sea Level Pressure  
Sea Level Pressure 29.94 in    
Wind  
Wind Speed 5 mph (WSW)    
Max Wind Speed 13 mph    
Max Gust Speed 16 mph    
Visibility 10 miles    
Events      
T = Trace of Precipitation, MM = Missing Value Source: NWS Daily Summary

Daily Weather History Graph

Daily Weather History Graph

Search for Another Location

Airport or City:

Trip Planner

Search our weather history database for the weather conditions in past years. The results will help you decide how hot, cold, wet, or windy it might be!

Date:

Astronomy

Jul. 07, 2013 Rise Set
Actual Time 5:57 AM CDT 9:38 PM CDT
Civil Twilight 5:18 AM CDT 10:17 PM CDT
Nautical Twilight 4:26 AM CDT 11:08 PM CDT
Astronomical Twilight 3:13 AM CDT 12:20 AM CDT
Moon 5:39 AM CDT (7/7) 8:58 PM CDT (7/7)
Length of Visible Light 16h 58m
Length of Day
15h 41m
Waning Crescent, 0% of the Moon is Illuminated
Jul 7
Waning Crescent
Jul 8
New
Jul 15
First Quarter
Jul 22
Full
Jul 29
Last Quarter

Hourly Weather History & Observations

Time (CDT) Temp. Heat Index Dew Point Humidity Pressure Visibility Wind Dir Wind Speed Gust Speed Precip Events Conditions
12:52 AM 73.0 °F - 57.9 °F 59% 29.86 in 10.0 mi NW 11.5 mph - N/A   Partly Cloudy
1:52 AM 70.0 °F - 57.9 °F 65% 29.86 in 10.0 mi WNW 8.1 mph - N/A   Scattered Clouds
2:52 AM 69.1 °F - 57.0 °F 65% 29.88 in 10.0 mi NW 9.2 mph - N/A   Clear
3:52 AM 64.9 °F - 59.0 °F 81% 29.88 in 10.0 mi West 5.8 mph - N/A   Scattered Clouds
4:52 AM 63.0 °F - 57.9 °F 84% 29.89 in 10.0 mi WNW 6.9 mph - N/A   Clear
5:52 AM 61.0 °F - 57.0 °F 87% 29.90 in 10.0 mi WNW 3.5 mph - N/A   Clear
6:52 AM 63.0 °F - 57.0 °F 81% 29.91 in 10.0 mi WNW 3.5 mph - N/A   Clear
7:52 AM 66.0 °F - 57.0 °F 73% 29.92 in 10.0 mi Calm Calm - N/A   Clear
8:52 AM 70.0 °F - 55.9 °F 61% 29.94 in 10.0 mi WNW 3.5 mph - N/A   Clear
9:52 AM 70.0 °F - 57.9 °F 65% 29.96 in 10.0 mi NW 4.6 mph - N/A   Clear
10:52 AM 69.1 °F - 59.0 °F 70% 29.97 in 10.0 mi WSW 6.9 mph - N/A   Clear
11:52 AM 70.0 °F - 59.0 °F 68% 29.99 in 10.0 mi SSW 6.9 mph - N/A   Clear
12:52 PM 73.0 °F - 59.0 °F 61% 30.00 in 10.0 mi West 6.9 mph - N/A   Partly Cloudy
1:52 PM 73.0 °F - 59.0 °F 61% 30.01 in 10.0 mi SSW 9.2 mph - N/A   Clear
2:52 PM 75.0 °F - 60.1 °F 60% 29.98 in 10.0 mi SE 6.9 mph - N/A   Partly Cloudy
3:52 PM 75.9 °F - 59.0 °F 56% 29.97 in 10.0 mi South 5.8 mph - N/A   Clear
4:52 PM 80.1 °F 80.6 °F 57.9 °F 47% 29.96 in 10.0 mi WSW 5.8 mph - N/A   Clear
5:52 PM 79.0 °F - 57.0 °F 47% 29.96 in 10.0 mi East 3.5 mph - N/A   Clear
6:52 PM 79.0 °F - 57.9 °F 48% 29.94 in 10.0 mi SSW 5.8 mph - N/A   Clear
7:52 PM 78.1 °F - 55.9 °F 46% 29.93 in 10.0 mi South 4.6 mph - N/A   Clear
8:52 PM 75.9 °F - 57.0 °F 52% 29.94 in 10.0 mi SSW 5.8 mph - N/A   Clear
9:52 PM 66.9 °F - 60.1 °F 79% 29.96 in 10.0 mi SSE 3.5 mph - N/A   Clear
10:52 PM 66.9 °F - 59.0 °F 76% 29.98 in 8.0 mi Calm Calm - N/A   Clear
11:52 PM 62.1 °F - 59.0 °F 90% 29.99 in 10.0 mi ESE 3.5 mph - N/A   Clear